^^
Saratoga-Weather Station Historical Data
Daily Summary for May 21, 2021 Units:  Metric    English   Both
Daily Weekly Monthly Yearly Custom
  High: Low: Average:
Temperature: 20.1 °C 14.7 °C 16.8 °C
Dew Point: 14 °C 11.8 °C 12.5 °C
Humidity: 84% 66% 76%
Wind Speed: 4.7km/h 0km/h 1.1km/h
Wind Gust: 9.7km/h - -
Wind- - SSE
Pressure: 1021.3 hPa 1019.3 hPa -
Precipitation: 0.0 mm    
Historical Graphs
 
 
Tabular Data for May 21, 2021
Time Temperature Dew Point Pressure Wind Wind Speed Wind Gust Humidity Rainfall Rate (Hourly) solar
00:03 19.2 °C 13.1 °C 1019.3 hPa ESE 3.2 km/h 9.7 km/h 68% 0.0 mm 0 W/m2
00:08 19.2 °C 13.1 °C 1019.6 hPa Calm   3.2 km/h 68% 0.0 mm 0 W/m2
00:13 19.2 °C 13.1 °C 1019.6 hPa ESE 1.4 km/h 9.7 km/h 68% 0.0 mm 0 W/m2
00:18 19.1 °C 13.3 °C 1019.6 hPa Calm   3.2 km/h 69% 0.0 mm 0 W/m2
00:23 18.8 °C 12.8 °C 1019.6 hPa Calm   4.8 km/h 68% 0.0 mm 0 W/m2
00:28 18.7 °C 13.1 °C 1019.6 hPa South 1.4 km/h 3.2 km/h 70% 0.0 mm 0 W/m2
00:33 18.5 °C 12.9 °C 1019.6 hPa Calm   1.6 km/h 70% 0.0 mm 0 W/m2
00:38 18.3 °C 13 °C 1020.0 hPa South 1.4 km/h 1.6 km/h 71% 0.0 mm 0 W/m2
00:43 18.2 °C 13.1 °C 1020.0 hPa Calm   1.6 km/h 72% 0.0 mm 0 W/m2
00:48 18.1 °C 12.8 °C 1020.0 hPa SSE 1.4 km/h 4.8 km/h 71% 0.0 mm 0 W/m2
00:53 17.9 °C 12.6 °C 1020.0 hPa South 3.2 km/h 4.8 km/h 71% 0.0 mm 0 W/m2
00:58 17.8 °C 12.5 °C 1020.0 hPa South 3.2 km/h 3.2 km/h 71% 0.0 mm 0 W/m2
01:03 17.8 °C 12.5 °C 1020.0 hPa Calm   1.6 km/h 71% 0.0 mm 0 W/m2
01:08 17.8 °C 12.7 °C 1020.0 hPa SSE 1.4 km/h 6.4 km/h 72% 0.0 mm 0 W/m2
01:13 17.7 °C 12.4 °C 1020.0 hPa Calm   3.2 km/h 71% 0.0 mm 0 W/m2
01:18 17.7 °C 12.6 °C 1020.0 hPa Calm   1.6 km/h 72% 0.0 mm 0 W/m2
01:23 17.6 °C 12.5 °C 1020.0 hPa SSE 3.2 km/h 4.8 km/h 72% 0.0 mm 0 W/m2
01:28 17.4 °C 12.5 °C 1020.0 hPa NW 4.7 km/h 4.8 km/h 73% 0.0 mm 0 W/m2
01:33 17.4 °C 12.5 °C 1020.0 hPa West 3.2 km/h 3.2 km/h 73% 0.0 mm 0 W/m2
01:38 17.4 °C 12.5 °C 1020.0 hPa West 1.4 km/h 3.2 km/h 73% 0.0 mm 0 W/m2
01:43 17.4 °C 12.3 °C 1020.0 hPa East 1.4 km/h 4.8 km/h 72% 0.0 mm 0 W/m2
01:48 17.4 °C 12.5 °C 1020.0 hPa Calm     73% 0.0 mm 0 W/m2
01:53 17.4 °C 12.3 °C 1020.0 hPa ESE 1.4 km/h 4.8 km/h 72% 0.0 mm 0 W/m2
01:58 17.4 °C 12.1 °C 1020.0 hPa WSW 1.4 km/h 4.8 km/h 71% 0.0 mm 0 W/m2
02:03 17.6 °C 12.3 °C 1020.0 hPa Calm   4.8 km/h 71% 0.0 mm 0 W/m2
02:08 17.6 °C 12.5 °C 1020.0 hPa Calm   1.6 km/h 72% 0.0 mm 0 W/m2
02:13 17.4 °C 12.5 °C 1019.6 hPa Calm   1.6 km/h 73% 0.0 mm 0 W/m2
02:18 17.2 °C 12.3 °C 1020.0 hPa Calm     73% 0.0 mm 0 W/m2
02:23 17 °C 12.3 °C 1019.6 hPa SW 1.4 km/h 3.2 km/h 74% 0.0 mm 0 W/m2
02:28 16.8 °C 12.3 °C 1019.6 hPa Calm   1.6 km/h 75% 0.0 mm 0 W/m2
02:33 16.7 °C 12.4 °C 1019.6 hPa SW 1.4 km/h 3.2 km/h 76% 0.0 mm 0 W/m2
02:38 16.6 °C 12.4 °C 1019.6 hPa Calm   1.6 km/h 76% 0.0 mm 0 W/m2
02:43 16.7 °C 12.4 °C 1019.6 hPa Calm   1.6 km/h 76% 0.0 mm 0 W/m2
02:49 16.7 °C 12.4 °C 1019.6 hPa WNW 1.4 km/h 1.6 km/h 76% 0.0 mm 0 W/m2
02:54 16.6 °C 12.4 °C 1019.6 hPa Calm   3.2 km/h 76% 0.0 mm 0 W/m2
02:59 16.4 °C 12.4 °C 1019.6 hPa Calm   1.6 km/h 77% 0.0 mm 0 W/m2
03:04 16.3 °C 12.5 °C 1019.6 hPa Calm   1.6 km/h 78% 0.0 mm 0 W/m2
03:09 16.3 °C 12.3 °C 1019.6 hPa SE 1.4 km/h 3.2 km/h 77% 0.0 mm 0 W/m2
03:14 16.3 °C 12.3 °C 1019.6 hPa Calm   6.4 km/h 77% 0.0 mm 0 W/m2
03:19 16.3 °C 12.3 °C 1019.6 hPa ESE 1.4 km/h 4.8 km/h 77% 0.0 mm 0 W/m2
03:24 16.4 °C 12.4 °C 1019.6 hPa ESE 1.4 km/h 3.2 km/h 77% 0.0 mm 0 W/m2
03:29 16.4 °C 12.6 °C 1019.6 hPa Calm   6.4 km/h 78% 0.0 mm 0 W/m2
03:34 16.3 °C 12.5 °C 1019.6 hPa SW 1.4 km/h 3.2 km/h 78% 0.0 mm 0 W/m2
03:39 16.2 °C 12.4 °C 1019.6 hPa SW 1.4 km/h 4.8 km/h 78% 0.0 mm 0 W/m2
03:44 16.1 °C 12.3 °C 1019.6 hPa Calm     78% 0.0 mm 0 W/m2
03:49 16.1 °C 12.3 °C 1019.6 hPa Calm   1.6 km/h 78% 0.0 mm 0 W/m2
03:54 16.1 °C 12.5 °C 1019.6 hPa Calm     79% 0.0 mm 0 W/m2
03:59 16 °C 12.4 °C 1019.6 hPa SE 1.4 km/h 3.2 km/h 79% 0.0 mm 0 W/m2
04:04 15.9 °C 12.3 °C 1019.6 hPa Calm   3.2 km/h 79% 0.0 mm 0 W/m2
04:09 15.9 °C 12.3 °C 1019.6 hPa ESE 1.4 km/h 1.6 km/h 79% 0.0 mm 0 W/m2
04:14 15.9 °C 12.3 °C 1019.6 hPa SSE 1.4 km/h 1.6 km/h 79% 0.0 mm 0 W/m2
04:19 15.8 °C 12.4 °C 1019.6 hPa SSE 1.4 km/h 1.6 km/h 80% 0.0 mm 0 W/m2
04:24 15.7 °C 12.1 °C 1019.6 hPa West 3.2 km/h 3.2 km/h 79% 0.0 mm 0 W/m2
04:29 15.8 °C 12.4 °C 1019.6 hPa NW 4.7 km/h 4.8 km/h 80% 0.0 mm 0 W/m2
04:34 15.8 °C 12.2 °C 1019.6 hPa Calm   1.6 km/h 79% 0.0 mm 0 W/m2
04:39 15.8 °C 12 °C 1019.6 hPa Calm   4.8 km/h 78% 0.0 mm 0 W/m2
04:44 15.8 °C 12 °C 1019.6 hPa Calm     78% 0.0 mm 0 W/m2
04:49 15.8 °C 12.2 °C 1019.6 hPa South 1.4 km/h 1.6 km/h 79% 0.0 mm 0 W/m2
04:54 15.7 °C 12.1 °C 1019.6 hPa Calm     79% 0.0 mm 0 W/m2
04:59 15.6 °C 12.2 °C 1019.6 hPa Calm     80% 0.0 mm 0 W/m2
05:04 15.4 °C 12 °C 1019.6 hPa Calm     80% 0.0 mm 0 W/m2
05:09 15.3 °C 12.1 °C 1019.6 hPa Calm     81% 0.0 mm 0 W/m2
05:14 15.1 °C 11.9 °C 1019.3 hPa Calm     81% 0.0 mm 0 W/m2
05:19 15 °C 12 °C 1019.6 hPa Calm     82% 0.0 mm 0 W/m2
05:24 14.9 °C 11.9 °C 1019.6 hPa South 1.4 km/h 3.2 km/h 82% 0.0 mm 0 W/m2
05:29 14.8 °C 11.9 °C 1019.6 hPa Calm   1.6 km/h 83% 0.0 mm 0 W/m2
05:34 14.8 °C 11.9 °C 1019.6 hPa Calm   3.2 km/h 83% 0.0 mm 0 W/m2
05:39 14.7 °C 11.8 °C 1019.6 hPa Calm     83% 0.0 mm 0 W/m2
05:44 14.7 °C 11.8 °C 1019.6 hPa Calm   3.2 km/h 83% 0.0 mm 0 W/m2
05:49 14.7 °C 12 °C 1019.6 hPa Calm   1.6 km/h 84% 0.0 mm 0 W/m2
05:54 14.7 °C 12 °C 1019.6 hPa Calm     84% 0.0 mm 0 W/m2
05:59 14.7 °C 12 °C 1019.6 hPa Calm   1.6 km/h 84% 0.0 mm 5 W/m2
06:04 14.8 °C 11.9 °C 1019.6 hPa Calm   3.2 km/h 83% 0.0 mm 7 W/m2
06:09 14.8 °C 11.9 °C 1019.6 hPa Calm     83% 0.0 mm 9 W/m2
06:14 14.9 °C 12 °C 1020.0 hPa Calm   3.2 km/h 83% 0.0 mm 12 W/m2
06:19 14.9 °C 12 °C 1020.0 hPa WNW 1.4 km/h 1.6 km/h 83% 0.0 mm 14 W/m2
06:24 14.8 °C 11.9 °C 1020.0 hPa Calm   1.6 km/h 83% 0.0 mm 18 W/m2
06:29 14.8 °C 11.9 °C 1020.0 hPa Calm     83% 0.0 mm 21 W/m2
06:34 14.7 °C 12 °C 1020.0 hPa Calm   1.6 km/h 84% 0.0 mm 25 W/m2
06:39 14.8 °C 11.9 °C 1020.0 hPa Calm     83% 0.0 mm 26 W/m2
06:44 14.8 °C 11.9 °C 1020.0 hPa Calm     83% 0.0 mm 30 W/m2
06:49 14.8 °C 11.9 °C 1020.0 hPa West 1.4 km/h 3.2 km/h 83% 0.0 mm 32 W/m2
06:55 14.9 °C 12 °C 1020.3 hPa Calm     83% 0.0 mm 35 W/m2
07:00 14.9 °C 11.9 °C 1020.3 hPa Calm   3.2 km/h 82% 0.0 mm 37 W/m2
07:05 15.1 °C 12 °C 1020.3 hPa Calm   4.8 km/h 82% 0.0 mm 40 W/m2
07:10 15.2 °C 12 °C 1020.7 hPa Calm   6.4 km/h 81% 0.0 mm 42 W/m2
07:15 15.3 °C 12.1 °C 1020.7 hPa Calm   3.2 km/h 81% 0.0 mm 44 W/m2
07:20 15.4 °C 12 °C 1020.7 hPa NE 1.4 km/h 6.4 km/h 80% 0.0 mm 46 W/m2
07:25 15.4 °C 12 °C 1020.7 hPa Calm   3.2 km/h 80% 0.0 mm 47 W/m2
07:30 15.6 °C 12.2 °C 1020.7 hPa East 1.4 km/h 4.8 km/h 80% 0.0 mm 49 W/m2
07:35 15.6 °C 12.2 °C 1020.7 hPa ENE 1.4 km/h 4.8 km/h 80% 0.0 mm 51 W/m2
07:40 15.7 °C 12.3 °C 1020.7 hPa NNW 3.2 km/h 3.2 km/h 80% 0.0 mm 53 W/m2
07:45 15.8 °C 12.4 °C 1020.7 hPa Calm   1.6 km/h 80% 0.0 mm 54 W/m2
07:50 15.9 °C 12.3 °C 1020.7 hPa Calm   3.2 km/h 79% 0.0 mm 56 W/m2
07:55 16 °C 12.4 °C 1020.7 hPa NNE 1.4 km/h 1.6 km/h 79% 0.0 mm 142 W/m2
08:00 16.1 °C 12.5 °C 1020.7 hPa North 1.4 km/h 3.2 km/h 79% 0.0 mm 185 W/m2
08:05 16.3 °C 12.7 °C 1020.7 hPa ENE 1.4 km/h 3.2 km/h 79% 0.0 mm 128 W/m2
08:10 16.7 °C 12.8 °C 1020.7 hPa North 1.4 km/h 3.2 km/h 78% 0.0 mm 72 W/m2
08:15 17 °C 12.9 °C 1020.7 hPa NE 1.4 km/h 3.2 km/h 77% 0.0 mm 69 W/m2
08:20 17.3 °C 13 °C 1020.7 hPa Calm   1.6 km/h 76% 0.0 mm 70 W/m2
08:25 17.6 °C 13.1 °C 1020.7 hPa ESE 3.2 km/h 6.4 km/h 75% 0.0 mm 70 W/m2
08:30 17.8 °C 13.1 °C 1020.7 hPa East 4.7 km/h 4.8 km/h 74% 0.0 mm 70 W/m2
08:35 17.9 °C 13 °C 1021.0 hPa Calm   1.6 km/h 73% 0.0 mm 72 W/m2
08:40 18 °C 13.1 °C 1021.0 hPa NNW 1.4 km/h 3.2 km/h 73% 0.0 mm 74 W/m2
08:45 18 °C 13.1 °C 1021.0 hPa WNW 3.2 km/h 3.2 km/h 73% 0.0 mm 74 W/m2
08:50 18.1 °C 13.2 °C 1021.0 hPa NNW 3.2 km/h 4.8 km/h 73% 0.0 mm 76 W/m2
08:55 18.1 °C 13.2 °C 1021.3 hPa Calm   1.6 km/h 73% 0.0 mm 76 W/m2
09:00 18.2 °C 12.9 °C 1021.0 hPa Calm   4.8 km/h 71% 0.0 mm 88 W/m2
09:05 18.6 °C 13.2 °C 1021.3 hPa ENE 1.4 km/h 3.2 km/h 71% 0.0 mm 199 W/m2
09:10 18.7 °C 13.1 °C 1021.3 hPa ESE 3.2 km/h 4.8 km/h 70% 0.0 mm 374 W/m2
09:15 18.8 °C 13.2 °C 1021.3 hPa SE 1.4 km/h 4.8 km/h 70% 0.0 mm 410 W/m2
09:20 18.9 °C 12.9 °C 1021.3 hPa East 3.2 km/h 6.4 km/h 68% 0.0 mm 422 W/m2
09:25 19 °C 13.4 °C 1021.3 hPa NNE 1.4 km/h 1.6 km/h 70% 0.0 mm 438 W/m2
09:30 19.2 °C 13.4 °C 1021.3 hPa ESE 1.4 km/h 6.4 km/h 69% 0.0 mm 454 W/m2
09:35 19.2 °C 13.1 °C 1021.3 hPa NE 1.4 km/h 6.4 km/h 68% 0.0 mm 466 W/m2
09:40 19.1 °C 13.1 °C 1021.3 hPa North 3.2 km/h 4.8 km/h 68% 0.0 mm 480 W/m2
09:45 19.2 °C 13.4 °C 1021.3 hPa ENE 4.7 km/h 8 km/h 69% 0.0 mm 492 W/m2
09:50 19.4 °C 13.8 °C 1021.3 hPa NE 3.2 km/h 4.8 km/h 70% 0.0 mm 504 W/m2
09:55 19.6 °C 13.5 °C 1021.3 hPa SE 1.4 km/h 8 km/h 68% 0.0 mm 520 W/m2
10:00 19.8 °C 13.7 °C 1021.3 hPa East 4.7 km/h 6.4 km/h 68% 0.0 mm 418 W/m2
10:05 20 °C 13.9 °C 1021.3 hPa ENE 3.2 km/h 4.8 km/h 68% 0.0 mm 93 W/m2
10:10 20.1 °C 14 °C 1021.0 hPa NW 3.2 km/h 4.8 km/h 68% 0.0 mm 200 W/m2
10:15 20.1 °C 13.5 °C 1021.3 hPa NE 3.2 km/h 4.8 km/h 66% 0.0 mm 568 W/m2
Juneau County Weather
Compliments of Weather Underground - 2 mb